IRNSS-1B

Last updated on Tue Sep 22 2026 00:03:13 GMT+0000 (Coordinated Universal Time)

1 39635U 14017A 26264.50007740 .00000111 00000+0 00000+0 0 9993 2 39635 28.7613 238.7489 0019946 191.5624 165.1355 1.00272712 45752
UTC large
Height (km)
Speed (km/s)
/
Latitude / Longitude
Inclination (degrees)
Orbital Period (minutes)
Azimuth
Elevation
Range (km)
Doppler Factor

Next 0 passes for location: London (51.5072 / 0.1276)

No passes found over London.
IRNSS-1B